Pittsfield, MA

3:15 AM EDT on April 20, 2018 (GMT -0400)
Pittsfield Municipal

Weather History for KPSF - July, 2013

Change the Weather History Date:

Friday, July 12, 2013

  Actual Average Record
Temperature  
Mean Temperature 69 °F 68 °F  
Max Temperature 79 °F 79 °F 98 °F (1936)
Min Temperature 59 °F 56 °F 42 °F (1945)
Degree Days  
Heating Degree Days 0 1  
Month to date heating degree days 0 12  
Since 1 June heating degree days 108 113  
Since 1 July heating degree days 0 12  
Cooling Degree Days 4 4  
Month to date cooling degree days 115 41  
Year to date cooling degree days 226 110  
Since 1 June cooling degree days 201 97  
Growing Degree Days 18 (Base 50)    
Moisture  
Dew Point 58 °F    
Average Humidity 72    
Maximum Humidity 90    
Minimum Humidity 54    
Precipitation  
Precipitation 0.00 in 0.13 in 1.85 in (1947)
Month to date precipitation 0.45 1.42  
Year to date precipitation 22.41 22.86  
Sea Level Pressure  
Sea Level Pressure 30.04 in    
Wind  
Wind Speed 5 mph (ENE)    
Max Wind Speed 13 mph    
Max Gust Speed 18 mph    
Visibility 10 miles    
Events      
T = Trace of Precipitation, MM = Missing Value Source: NWS Daily Summary

Daily Weather History Graph

Daily Weather History Graph

Search for Another Location

Airport or City:

Astronomy

Jul. 12, 2013 Rise Set
Actual Time 5:27 AM EDT 8:30 PM EDT
Civil Twilight 4:53 AM EDT 9:03 PM EDT
Nautical Twilight 4:10 AM EDT 9:46 PM EDT
Astronomical Twilight 3:18 AM EDT 10:37 PM EDT
Moon 9:47 AM EDT (7/12) 10:32 PM EDT (7/12)
Length of Visible Light 16h 10m
Length of Day
15h 02m
Waxing Crescent, 17% of the Moon is Illuminated
Jul 12
Waxing Crescent
Jul 15
First Quarter
Jul 22
Full
Jul 29
Last Quarter
Aug 6
New

Hourly Weather History & Observations

Time (EDT) Temp. Dew Point Humidity Pressure Visibility Wind Dir Wind Speed Gust Speed Precip Events Conditions
12:54 AM 62.1 °F 59.0 °F 90% 29.93 in 10.0 mi Calm Calm - N/A   Clear
1:54 AM 62.1 °F 57.9 °F 86% 29.93 in 10.0 mi Calm Calm - N/A   Clear
2:54 AM 61.0 °F 57.0 °F 87% 29.95 in 10.0 mi Calm Calm - N/A   Clear
3:54 AM 60.1 °F 55.9 °F 86% 29.96 in 10.0 mi Calm Calm - N/A   Clear
4:54 AM 59.0 °F 55.9 °F 90% 29.98 in 10.0 mi Calm Calm - N/A   Mostly Cloudy
5:54 AM 59.0 °F 55.9 °F 90% 30.00 in 10.0 mi Calm Calm - N/A   Scattered Clouds
6:54 AM 63.0 °F 57.0 °F 81% 30.01 in 10.0 mi Calm Calm - N/A   Partly Cloudy
7:54 AM 64.9 °F 57.9 °F 78% 30.03 in 10.0 mi Calm Calm - N/A   Clear
8:54 AM 69.1 °F 57.0 °F 65% 30.04 in 10.0 mi NE 9.2 mph - N/A   Partly Cloudy
9:54 AM 68.0 °F 55.9 °F 65% 30.05 in 10.0 mi ENE 5.8 mph - N/A   Mostly Cloudy
10:54 AM 71.1 °F 55.9 °F 59% 30.05 in 10.0 mi ENE 8.1 mph - N/A   Mostly Cloudy
11:54 AM 75.9 °F 57.9 °F 54% 30.05 in 10.0 mi NE 9.2 mph - N/A   Partly Cloudy
12:54 PM 77.0 °F 59.0 °F 54% 30.05 in 10.0 mi NE 8.1 mph - N/A   Partly Cloudy
1:54 PM 78.1 °F 60.1 °F 54% 30.05 in 10.0 mi ENE 8.1 mph - N/A   Partly Cloudy
2:54 PM 77.0 °F 60.1 °F 56% 30.05 in 10.0 mi Variable 3.5 mph - N/A   Scattered Clouds
3:54 PM 75.9 °F 60.1 °F 58% 30.05 in 10.0 mi Variable 6.9 mph - N/A   Partly Cloudy
4:54 PM 75.0 °F 60.1 °F 60% 30.06 in 10.0 mi East 6.9 mph - N/A   Clear
5:54 PM 73.9 °F 61.0 °F 64% 30.06 in 10.0 mi East 4.6 mph - N/A   Clear
6:54 PM 73.0 °F 61.0 °F 66% 30.07 in 10.0 mi East 10.4 mph - N/A   Clear
7:54 PM 71.1 °F 59.0 °F 66% 30.08 in 10.0 mi East 5.8 mph - N/A   Clear
8:54 PM 70.0 °F 55.9 °F 61% 30.09 in 10.0 mi East 6.9 mph - N/A   Clear
9:54 PM 69.1 °F 55.9 °F 63% 30.11 in 10.0 mi ENE 3.5 mph - N/A   Clear
10:54 PM 68.0 °F 54.0 °F 61% 30.12 in 10.0 mi ENE 4.6 mph - N/A   Clear
11:54 PM 66.9 °F 53.1 °F 61% 30.13 in 10.0 mi ENE 5.8 mph - N/A   Scattered Clouds